Location: Newark
(13.8625°N, 100.5144°E)
Time: 15:15:07
(UTC+00:00)

LightSail 2 - Pass Details

Date: 18 May 2021
Orbit: 685 x 700 km, 24.0° (Epoch: 11 June)

Event Time Altitude Azimuth Distance (km) Brightness Sun altitude
Rises 14:00:21 0° 259° (W) 3,055 9.0 -31.7°
Reaches altitude 10° 14:02:48 10° 264° (W) 2,140 8.1 -32.1°
Enters shadow 14:05:43 33° 279° (W) 1,156 6.6 -32.7°
